AFL2864 URKK-UWUU

Flight info

Callsign AFL2864
Flight time 2h 22m
Altitude 34000
Route KULED6T KULED G901 TADIL/K0832F360 G901 OTKEN/K0822F350 G901 RODUN R807 UROBO T692 IPNAS/K0835F370 T692 OSBOT/K0822F360 N984 MILUN MILUN2K
Aircraft A321/M-SDE3FGHIRWY/LB1

Departure

Time 2026-05-07 10:30
Airport Krasnodar Pashkovsky International Airport (URKK)

Arrival

Time 2026-05-07 12:52
Airport Ufa International Airport (UWUU)
Time Latitude Longitude Altitude Speed Heading
2026-05-07 09:58 45.03488 39.14173 105 ft 0 kts 334°
2026-05-07 10:15 45.03474 39.14182 106 ft 4 kts 338°
2026-05-07 10:15 45.03449 39.14193 106 ft 4 kts
2026-05-07 10:16 45.03429 39.14184 106 ft 2 kts 59°
2026-05-07 10:16 45.03428 39.14181 106 ft 0 kts 60°
2026-05-07 10:17 45.03428 39.14183 106 ft 2 kts 60°
2026-05-07 10:18 45.03461 39.14265 105 ft 18 kts 60°
2026-05-07 10:18 45.03540 39.14464 104 ft 25 kts 61°
2026-05-07 10:18 45.03624 39.14674 106 ft 24 kts 60°
2026-05-07 10:18 45.03705 39.14879 105 ft 24 kts 61°
2026-05-07 10:19 45.03784 39.15078 106 ft 23 kts 61°
2026-05-07 10:19 45.03826 39.15276 106 ft 21 kts 108°
2026-05-07 10:19 45.03781 39.15469 106 ft 19 kts 90°
2026-05-07 10:19 45.03848 39.15656 105 ft 25 kts 62°
2026-05-07 10:20 45.03850 39.15901 106 ft 25 kts 102°
2026-05-07 10:20 45.03811 39.16135 106 ft 23 kts 123°
2026-05-07 10:20 45.03693 39.16285 106 ft 22 kts 143°
2026-05-07 10:20 45.03570 39.16413 105 ft 21 kts 143°
2026-05-07 10:21 45.03453 39.16537 106 ft 21 kts 143°
2026-05-07 10:21 45.03343 39.16660 106 ft 20 kts 141°
2026-05-07 10:21 45.03213 39.16805 106 ft 29 kts 141°
2026-05-07 10:21 45.03055 39.16969 106 ft 21 kts 144°
2026-05-07 10:22 45.02943 39.17095 105 ft 20 kts 143°
2026-05-07 10:22 45.02835 39.17211 107 ft 19 kts 140°
2026-05-07 10:22 45.02829 39.17334 107 ft 13 kts 52°
2026-05-07 10:22 45.02886 39.17440 107 ft 17 kts 52°
2026-05-07 10:23 45.02979 39.17611 107 ft 27 kts 53°
2026-05-07 10:23 45.03106 39.17844 106 ft 27 kts 51°
2026-05-07 10:23 45.03218 39.18048 106 ft 24 kts 52°
2026-05-07 10:23 45.03317 39.18231 106 ft 23 kts 53°
2026-05-07 10:24 45.03409 39.18406 107 ft 22 kts 53°
2026-05-07 10:24 45.03497 39.18569 107 ft 21 kts 52°
2026-05-07 10:24 45.03583 39.18724 106 ft 19 kts 53°
2026-05-07 10:24 45.03668 39.18882 107 ft 23 kts 52°
2026-05-07 10:25 45.03780 39.19088 107 ft 27 kts 52°
2026-05-07 10:25 45.03892 39.19292 107 ft 26 kts 52°
2026-05-07 10:25 45.03905 39.19317 107 ft 26 kts 52°
2026-05-07 10:25 45.03965 39.19427 107 ft 25 kts 53°
2026-05-07 10:26 45.04069 39.19619 108 ft 24 kts 52°
2026-05-07 10:26 45.04167 39.19800 107 ft 23 kts 53°
2026-05-07 10:26 45.04226 39.19913 108 ft 22 kts 53°
2026-05-07 10:27 45.04297 39.20044 106 ft 22 kts 53°
2026-05-07 10:27 45.04320 39.20224 110 ft 18 kts 128°
2026-05-07 10:27 45.04276 39.20294 118 ft 2 kts 139°
2026-05-07 10:28 45.04273 39.20296 115 ft 1 kts 146°
2026-05-07 10:28 45.04247 39.20292 119 ft 10 kts 188°
2026-05-07 10:28 45.04210 39.20261 118 ft 0 kts 232°
2026-05-07 10:28 45.04107 39.20075 119 ft 58 kts 232°
2026-05-07 10:29 45.03731 39.19381 115 ft 117 kts 232°
2026-05-07 10:29 45.03141 39.18303 128 ft 157 kts 230°
2026-05-07 10:29 45.02482 39.17104 687 ft 151 kts 232°
2026-05-07 10:30 45.01169 39.14675 1613 ft 168 kts 232°
2026-05-07 10:30 45.00414 39.13282 1840 ft 189 kts 232°
2026-05-07 10:30 44.99569 39.11727 2028 ft 210 kts 232°
2026-05-07 10:30 44.98664 39.10064 2397 ft 221 kts 233°
2026-05-07 10:31 44.97724 39.08331 3120 ft 223 kts 233°
2026-05-07 10:31 44.96730 39.06646 3870 ft 225 kts 220°
2026-05-07 10:31 44.95281 39.05849 4458 ft 232 kts 181°
2026-05-07 10:31 44.93664 39.06454 4766 ft 253 kts 151°
2026-05-07 10:32 44.92181 39.07873 5383 ft 261 kts 141°
2026-05-07 10:32 44.90777 39.09526 6099 ft 265 kts 139°
2026-05-07 10:32 44.89415 39.11304 6843 ft 269 kts 129°
2026-05-07 10:32 44.88487 39.13551 7554 ft 271 kts 109°
2026-05-07 10:33 44.88092 39.16167 8142 ft 279 kts 91°
2026-05-07 10:33 44.88348 39.18903 8728 ft 285 kts 73°
2026-05-07 10:33 44.88909 39.21607 9408 ft 289 kts 73°
2026-05-07 10:33 44.89473 39.24338 10115 ft 291 kts 73°
2026-05-07 10:34 44.90044 39.27123 10577 ft 304 kts 73°
2026-05-07 10:34 44.90648 39.30097 10714 ft 327 kts 73°
2026-05-07 10:34 44.91289 39.33261 11005 ft 342 kts 73°
2026-05-07 10:34 44.91936 39.36467 11593 ft 347 kts 73°
2026-05-07 10:35 44.92602 39.39746 12266 ft 349 kts 73°
2026-05-07 10:35 44.93274 39.43051 12925 ft 352 kts 73°
2026-05-07 10:35 44.93948 39.46382 13579 ft 354 kts 74°
2026-05-07 10:35 44.94625 39.49740 14207 ft 357 kts 73°
2026-05-07 10:36 44.95331 39.53110 14828 ft 360 kts 70°
2026-05-07 10:36 44.96406 39.56309 15416 ft 362 kts 58°
2026-05-07 10:36 44.97944 39.59140 15993 ft 365 kts 46°
2026-05-07 10:36 44.99881 39.61478 16562 ft 368 kts 36°
2026-05-07 10:37 45.01929 39.63591 17122 ft 371 kts 37°
2026-05-07 10:37 45.04016 39.65760 17680 ft 374 kts 37°
2026-05-07 10:37 45.06112 39.67956 18225 ft 376 kts 37°
2026-05-07 10:37 45.08217 39.70170 18752 ft 378 kts 37°
2026-05-07 10:38 45.10334 39.72399 19257 ft 381 kts 37°
2026-05-07 10:38 45.12468 39.74644 19734 ft 384 kts 37°
2026-05-07 10:38 45.14619 39.76904 20216 ft 386 kts 37°
2026-05-07 10:38 45.16755 39.79151 20686 ft 388 kts 37°
2026-05-07 10:39 45.18928 39.81447 21149 ft 391 kts 37°
2026-05-07 10:39 45.21115 39.83760 21621 ft 393 kts 37°
2026-05-07 10:39 45.23313 39.86088 22038 ft 396 kts 37°
2026-05-07 10:39 45.25518 39.88443 22479 ft 398 kts 40°
2026-05-07 10:40 45.27505 39.91182 22887 ft 400 kts 50°
2026-05-07 10:40 45.29108 39.94410 23267 ft 402 kts 60°
2026-05-07 10:40 45.30273 39.98020 23672 ft 404 kts 70°
2026-05-07 10:40 45.31211 40.01739 24059 ft 406 kts 70°
2026-05-07 10:41 45.32171 40.05524 24458 ft 408 kts 70°
2026-05-07 10:41 45.33138 40.09333 24837 ft 411 kts 70°
2026-05-07 10:41 45.34110 40.13159 25219 ft 412 kts 70°
2026-05-07 10:41 45.35083 40.17004 25583 ft 414 kts 70°
2026-05-07 10:42 45.36059 40.20866 25937 ft 416 kts 70°
2026-05-07 10:42 45.37038 40.24751 26289 ft 418 kts 70°
2026-05-07 10:42 45.38017 40.28656 26632 ft 420 kts 70°
2026-05-07 10:42 45.39002 40.32579 26974 ft 422 kts 70°
2026-05-07 10:43 45.39978 40.36463 27298 ft 424 kts 70°
2026-05-07 10:43 45.40969 40.40422 27621 ft 426 kts 70°
2026-05-07 10:43 45.41962 40.44401 27941 ft 427 kts 70°
2026-05-07 10:43 45.42958 40.48398 28253 ft 429 kts 70°
2026-05-07 10:44 45.44112 40.52318 28544 ft 431 kts 62°
2026-05-07 10:44 45.45702 40.55934 28823 ft 432 kts 52°
2026-05-07 10:44 45.47708 40.59125 29096 ft 434 kts 43°
2026-05-07 10:44 45.50064 40.61823 29362 ft 436 kts 37°
2026-05-07 10:45 45.52518 40.64375 29634 ft 437 kts 37°
2026-05-07 10:45 45.54936 40.66916 29890 ft 439 kts 37°
2026-05-07 10:45 45.57394 40.69510 30156 ft 440 kts 37°
2026-05-07 10:45 45.59859 40.72114 30404 ft 442 kts 37°
2026-05-07 10:46 45.62331 40.74723 30735 ft 441 kts 37°
2026-05-07 10:46 45.64799 40.77326 31078 ft 441 kts 37°
2026-05-07 10:46 45.67266 40.79929 31428 ft 440 kts 37°
2026-05-07 10:46 45.69728 40.82530 31756 ft 440 kts 37°
2026-05-07 10:47 45.72187 40.85135 32086 ft 440 kts 37°
2026-05-07 10:47 45.74609 40.87705 32408 ft 439 kts 37°
2026-05-07 10:47 45.77062 40.90308 32730 ft 439 kts 37°
2026-05-07 10:47 45.79512 40.92914 33035 ft 438 kts 37°
2026-05-07 10:48 45.81960 40.95520 33333 ft 438 kts 37°
2026-05-07 10:48 45.84407 40.98125 33619 ft 438 kts 37°
2026-05-07 10:48 45.86854 41.00732 33903 ft 438 kts 37°
2026-05-07 10:48 45.89296 41.03338 34184 ft 438 kts 37°
2026-05-07 10:49 45.91740 41.05948 34448 ft 438 kts 37°
2026-05-07 10:49 45.94185 41.08561 34690 ft 438 kts 37°
2026-05-07 10:49 45.96599 41.11148 34907 ft 439 kts 37°
2026-05-07 10:49 45.99048 41.13773 35126 ft 440 kts 37°
2026-05-07 10:50 46.01502 41.16405 35346 ft 440 kts 37°
2026-05-07 10:50 46.03956 41.19038 35578 ft 440 kts 37°
2026-05-07 10:50 46.06411 41.21674 35795 ft 441 kts 37°
2026-05-07 10:50 46.08871 41.24315 35996 ft 441 kts 37°
2026-05-07 10:51 46.11336 41.26968 36116 ft 442 kts 37°
2026-05-07 10:51 46.13796 41.29625 36150 ft 442 kts 37°
2026-05-07 10:51 46.18668 41.34907 36147 ft 441 kts 37°
2026-05-07 10:52 46.23570 41.40220 36142 ft 440 kts 37°
2026-05-07 10:52 46.28469 41.45538 36144 ft 441 kts 37°
2026-05-07 10:53 46.33365 41.50877 36143 ft 441 kts 37°
2026-05-07 10:53 46.38234 41.56182 36145 ft 441 kts 37°
2026-05-07 10:54 46.43135 41.61538 36146 ft 441 kts 37°
2026-05-07 10:54 46.48035 41.66904 36148 ft 441 kts 37°
2026-05-07 10:55 46.52932 41.72283 36144 ft 442 kts 37°
2026-05-07 10:55 46.57824 41.77670 36131 ft 441 kts 37°
2026-05-07 10:56 46.62684 41.83035 36142 ft 442 kts 37°
2026-05-07 10:56 46.67582 41.88433 36142 ft 441 kts 37°
2026-05-07 10:57 46.72468 41.93842 36132 ft 441 kts 38°
2026-05-07 10:57 46.77342 41.99277 36138 ft 440 kts 38°
2026-05-07 10:58 46.82181 42.04661 36130 ft 441 kts 37°
2026-05-07 10:58 46.87067 42.10083 36127 ft 441 kts 37°
2026-05-07 10:59 46.91955 42.15505 36125 ft 441 kts 37°
2026-05-07 10:59 46.96837 42.20947 36116 ft 441 kts 37°
2026-05-07 11:00 47.01723 42.26402 36108 ft 441 kts 37°
2026-05-07 11:00 47.06573 42.31826 36104 ft 441 kts 37°
2026-05-07 11:01 47.11445 42.37308 36101 ft 441 kts 38°
2026-05-07 11:01 47.16305 42.42802 36094 ft 441 kts 38°
2026-05-07 11:02 47.21164 42.48300 36093 ft 441 kts 38°
2026-05-07 11:02 47.25988 42.53760 36091 ft 441 kts 38°
2026-05-07 11:03 47.30844 42.59274 36087 ft 441 kts 38°
2026-05-07 11:03 47.35695 42.64802 36081 ft 441 kts 38°
2026-05-07 11:04 47.40546 42.70340 36080 ft 441 kts 38°
2026-05-07 11:04 47.45363 42.75847 36076 ft 441 kts 38°
2026-05-07 11:05 47.50205 42.81409 36074 ft 441 kts 38°
2026-05-07 11:05 47.55048 42.86983 36071 ft 441 kts 38°
2026-05-07 11:06 47.59893 42.92558 36063 ft 441 kts 38°
2026-05-07 11:06 47.64733 42.98148 36051 ft 441 kts 38°
2026-05-07 11:07 47.69536 43.03708 36051 ft 441 kts 38°
2026-05-07 11:07 47.74368 43.09313 36036 ft 441 kts 38°
2026-05-07 11:08 47.79193 43.14940 36034 ft 441 kts 38°
2026-05-07 11:08 47.84014 43.20579 36031 ft 441 kts 38°
2026-05-07 11:09 47.88797 43.26196 36027 ft 441 kts 38°
2026-05-07 11:09 47.93604 43.31855 36022 ft 440 kts 38°
2026-05-07 11:10 47.98414 43.37524 36018 ft 441 kts 38°
2026-05-07 11:10 48.03223 43.43207 36014 ft 441 kts 38°
2026-05-07 11:11 48.07991 43.48869 36011 ft 441 kts 38°
2026-05-07 11:11 48.12791 43.54565 36007 ft 440 kts 38°
2026-05-07 11:12 48.17589 43.60262 36003 ft 440 kts 38°
2026-05-07 11:12 48.22372 43.65989 35999 ft 440 kts 39°
2026-05-07 11:13 48.27097 43.71729 35995 ft 440 kts 39°
2026-05-07 11:13 48.31848 43.77521 35984 ft 440 kts 39°
2026-05-07 11:14 48.36605 43.83307 35984 ft 440 kts 39°
2026-05-07 11:14 48.41367 43.89086 35978 ft 439 kts 39°
2026-05-07 11:15 48.46113 43.94878 35972 ft 439 kts 39°
2026-05-07 11:15 48.50827 44.00658 35970 ft 440 kts 39°
2026-05-07 11:16 48.55564 44.06485 35969 ft 439 kts 39°
2026-05-07 11:16 48.60303 44.12332 35970 ft 440 kts 39°
2026-05-07 11:17 48.65041 44.18180 35969 ft 440 kts 39°
2026-05-07 11:17 48.69744 44.23998 35968 ft 439 kts 39°
2026-05-07 11:18 48.74473 44.29863 35965 ft 439 kts 39°
2026-05-07 11:18 48.79337 44.35462 35961 ft 439 kts 30°
2026-05-07 11:19 48.84633 44.40099 35958 ft 440 kts 30°
2026-05-07 11:19 48.89929 44.44754 35958 ft 440 kts 30°
2026-05-07 11:20 48.95192 44.49391 35960 ft 440 kts 30°
2026-05-07 11:20 49.00491 44.54070 35960 ft 440 kts 30°
2026-05-07 11:21 49.05786 44.58762 35959 ft 440 kts 30°
2026-05-07 11:21 49.11074 44.63463 35958 ft 440 kts 30°
2026-05-07 11:22 49.16319 44.68146 35957 ft 440 kts 30°
2026-05-07 11:22 49.21606 44.72869 35958 ft 440 kts 30°
2026-05-07 11:23 49.26897 44.77600 35958 ft 440 kts 30°
2026-05-07 11:23 49.32185 44.82333 35959 ft 440 kts 30°
2026-05-07 11:24 49.37428 44.87057 35959 ft 440 kts 31°
2026-05-07 11:24 49.42698 44.91833 35957 ft 440 kts 31°
2026-05-07 11:25 49.47970 44.96612 35959 ft 440 kts 30°
2026-05-07 11:25 49.53249 45.01386 35958 ft 440 kts 30°
2026-05-07 11:26 49.58486 45.06135 35957 ft 440 kts 31°
2026-05-07 11:26 49.63757 45.10946 35958 ft 440 kts 31°
2026-05-07 11:27 49.69281 45.14914 35956 ft 439 kts 16°
2026-05-07 11:27 49.75165 45.17485 35954 ft 439 kts 16°
2026-05-07 11:28 49.81053 45.20059 35954 ft 440 kts 16°
2026-05-07 11:28 49.86907 45.22625 35956 ft 440 kts 16°
2026-05-07 11:29 49.92801 45.25213 35958 ft 440 kts 16°
2026-05-07 11:29 49.98572 45.28291 35950 ft 439 kts 28°
2026-05-07 11:30 50.03393 45.34006 35945 ft 438 kts 48°
2026-05-07 11:30 50.06856 45.41696 35937 ft 438 kts 57°
2026-05-07 11:31 50.10121 45.49710 35935 ft 439 kts 57°
2026-05-07 11:31 50.13379 45.57742 35937 ft 439 kts 57°
2026-05-07 11:32 50.16631 45.65835 36286 ft 441 kts 58°
2026-05-07 11:32 50.18258 45.69891 36486 ft 442 kts 58°
2026-05-07 11:32 50.19893 45.73958 36665 ft 442 kts 58°
2026-05-07 11:33 50.21507 45.77969 36865 ft 442 kts 58°
2026-05-07 11:33 50.24751 45.86079 36932 ft 438 kts 58°
2026-05-07 11:34 50.27961 45.94126 36934 ft 435 kts 58°
2026-05-07 11:34 50.31151 46.02166 36934 ft 435 kts 58°
2026-05-07 11:35 50.34337 46.10226 36933 ft 435 kts 58°
2026-05-07 11:35 50.37503 46.18221 36935 ft 435 kts 58°
2026-05-07 11:36 50.40689 46.26287 36938 ft 435 kts 58°
2026-05-07 11:36 50.43866 46.34371 36938 ft 436 kts 58°
2026-05-07 11:37 50.47029 46.42473 36933 ft 435 kts 58°
2026-05-07 11:37 50.50165 46.50524 36934 ft 435 kts 58°
2026-05-07 11:38 50.53312 46.58628 36928 ft 435 kts 58°
2026-05-07 11:38 50.56415 46.66799 36929 ft 435 kts 60°
2026-05-07 11:39 50.59375 46.75112 36931 ft 436 kts 61°
2026-05-07 11:39 50.62274 46.83413 36932 ft 436 kts 61°
2026-05-07 11:40 50.65217 46.91764 36934 ft 436 kts 60°
2026-05-07 11:40 50.68175 47.00101 36934 ft 436 kts 60°
2026-05-07 11:41 50.71130 47.08455 36933 ft 436 kts 60°
2026-05-07 11:41 50.74053 47.16762 36935 ft 436 kts 61°
2026-05-07 11:42 50.76989 47.25144 36934 ft 436 kts 61°
2026-05-07 11:42 50.79918 47.33534 36934 ft 436 kts 61°
2026-05-07 11:43 50.82844 47.41932 36936 ft 436 kts 61°
2026-05-07 11:43 50.85768 47.50354 36940 ft 437 kts 61°
2026-05-07 11:44 50.88658 47.58730 36940 ft 436 kts 61°
2026-05-07 11:44 50.91561 47.67160 36941 ft 436 kts 61°
2026-05-07 11:45 50.94465 47.75594 36942 ft 436 kts 61°
2026-05-07 11:45 50.97364 47.84035 36940 ft 436 kts 61°
2026-05-07 11:46 51.00230 47.92441 36939 ft 436 kts 62°
2026-05-07 11:46 51.03108 48.00912 36937 ft 436 kts 62°
2026-05-07 11:47 51.05979 48.09402 36933 ft 436 kts 62°
2026-05-07 11:47 51.08852 48.17895 36928 ft 436 kts 62°
2026-05-07 11:48 51.11719 48.26400 36924 ft 437 kts 62°
2026-05-07 11:48 51.14562 48.34871 36928 ft 436 kts 62°
2026-05-07 11:49 51.17411 48.43412 36929 ft 436 kts 62°
2026-05-07 11:49 51.20252 48.51953 36925 ft 436 kts 62°
2026-05-07 11:50 51.23088 48.60506 36915 ft 436 kts 62°
2026-05-07 11:50 51.25901 48.69014 36908 ft 437 kts 62°
2026-05-07 11:51 51.28739 48.77590 36923 ft 437 kts 62°
2026-05-07 11:51 51.31566 48.86185 36920 ft 437 kts 62°
2026-05-07 11:52 51.34385 48.94786 36917 ft 437 kts 62°
2026-05-07 11:52 51.37197 49.03409 36919 ft 437 kts 62°
2026-05-07 11:53 51.39986 49.11981 36915 ft 437 kts 63°
2026-05-07 11:53 51.42790 49.20614 36913 ft 437 kts 63°
2026-05-07 11:54 51.45576 49.29261 36917 ft 437 kts 63°
2026-05-07 11:54 51.48363 49.37918 36909 ft 437 kts 63°
2026-05-07 11:55 51.51150 49.46579 36918 ft 437 kts 63°
2026-05-07 11:55 51.53903 49.55209 36912 ft 437 kts 63°
2026-05-07 11:56 51.56670 49.63907 36913 ft 437 kts 63°
2026-05-07 11:56 51.59434 49.72608 36914 ft 437 kts 63°
2026-05-07 11:57 51.62178 49.81325 36921 ft 437 kts 63°
2026-05-07 11:57 51.64895 49.89995 36915 ft 437 kts 63°
2026-05-07 11:58 51.67625 49.98734 36908 ft 436 kts 63°
2026-05-07 11:58 51.70351 50.07467 36910 ft 436 kts 64°
2026-05-07 11:59 51.73072 50.16210 36911 ft 436 kts 64°
2026-05-07 11:59 51.75762 50.24902 36904 ft 436 kts 64°
2026-05-07 12:00 51.78470 50.33661 36905 ft 436 kts 64°
2026-05-07 12:00 51.81172 50.42431 36904 ft 436 kts 64°
2026-05-07 12:01 51.83867 50.51211 36906 ft 436 kts 64°
2026-05-07 12:01 51.86528 50.59949 36902 ft 436 kts 64°
2026-05-07 12:02 51.89202 50.68756 36896 ft 436 kts 64°
2026-05-07 12:02 51.91880 50.77567 36896 ft 436 kts 64°
2026-05-07 12:03 51.94548 50.86400 36889 ft 437 kts 64°
2026-05-07 12:03 51.97257 50.95143 36888 ft 437 kts 63°
2026-05-07 12:04 52.00073 51.03884 36890 ft 437 kts 63°
2026-05-07 12:04 52.02879 51.12636 36896 ft 437 kts 63°
2026-05-07 12:05 52.05657 51.21421 36899 ft 437 kts 63°
2026-05-07 12:05 52.08397 51.30155 36889 ft 437 kts 63°
2026-05-07 12:06 52.11150 51.38967 36892 ft 437 kts 63°
2026-05-07 12:06 52.13909 51.47785 36897 ft 437 kts 63°
2026-05-07 12:07 52.16664 51.56620 36895 ft 437 kts 63°
2026-05-07 12:07 52.19410 51.65465 36894 ft 437 kts 64°
2026-05-07 12:08 52.22132 51.74269 36898 ft 438 kts 64°
2026-05-07 12:08 52.24868 51.83146 36897 ft 438 kts 64°
2026-05-07 12:09 52.27603 51.92027 36906 ft 438 kts 64°
2026-05-07 12:09 52.30330 52.00925 36903 ft 438 kts 64°
2026-05-07 12:10 52.33031 52.09775 36904 ft 438 kts 64°
2026-05-07 12:10 52.35737 52.18696 36900 ft 438 kts 64°
2026-05-07 12:11 52.38438 52.27632 36912 ft 438 kts 64°
2026-05-07 12:11 52.41137 52.36579 36898 ft 438 kts 64°
2026-05-07 12:12 52.43823 52.45543 36901 ft 438 kts 64°
2026-05-07 12:12 52.46478 52.54458 36900 ft 438 kts 64°
2026-05-07 12:13 52.49143 52.63436 36896 ft 438 kts 65°
2026-05-07 12:13 52.51797 52.72436 36899 ft 438 kts 65°
2026-05-07 12:14 52.54444 52.81448 36899 ft 438 kts 65°
2026-05-07 12:14 52.57070 52.90409 36900 ft 438 kts 65°
2026-05-07 12:15 52.59700 52.99451 36906 ft 438 kts 65°
2026-05-07 12:15 52.62325 53.08485 36904 ft 438 kts 65°
2026-05-07 12:16 52.64945 53.17545 36905 ft 438 kts 65°
2026-05-07 12:16 52.67547 53.26544 36909 ft 438 kts 65°
2026-05-07 12:17 52.70159 53.35626 36919 ft 438 kts 65°
2026-05-07 12:17 52.72764 53.44723 36917 ft 439 kts 65°
2026-05-07 12:18 52.75361 53.53835 36912 ft 439 kts 66°
2026-05-07 12:18 52.77953 53.62963 36928 ft 439 kts 65°
2026-05-07 12:19 52.80523 53.72031 36929 ft 439 kts 66°
2026-05-07 12:19 52.83099 53.81176 36930 ft 439 kts 66°
2026-05-07 12:20 52.85664 53.90340 36929 ft 439 kts 66°
2026-05-07 12:20 52.88224 53.99511 36916 ft 439 kts 66°
2026-05-07 12:21 52.90749 54.08576 36920 ft 439 kts 66°
2026-05-07 12:21 52.93301 54.17760 36914 ft 439 kts 66°
2026-05-07 12:22 52.95835 54.26977 36916 ft 440 kts 66°
2026-05-07 12:22 52.98374 54.36206 36914 ft 440 kts 66°
2026-05-07 12:23 53.00897 54.45422 36910 ft 440 kts 66°
2026-05-07 12:23 53.03408 54.54622 36913 ft 440 kts 66°
2026-05-07 12:24 53.05933 54.63901 36911 ft 441 kts 66°
2026-05-07 12:24 53.08439 54.73199 36914 ft 441 kts 66°
2026-05-07 12:25 53.10521 54.80940 36911 ft 441 kts 67°
2026-05-07 12:25 53.13426 54.91787 36920 ft 441 kts 67°
2026-05-07 12:26 53.15926 55.01127 36911 ft 441 kts 67°
2026-05-07 12:26 53.17993 55.08890 36919 ft 441 kts 67°
2026-05-07 12:26 53.19660 55.15150 36754 ft 442 kts 67°
2026-05-07 12:27 53.20902 55.19828 36507 ft 441 kts 67°
2026-05-07 12:27 53.22121 55.24436 36259 ft 441 kts 67°
2026-05-07 12:27 53.23360 55.29132 36010 ft 442 kts 67°
2026-05-07 12:27 53.24600 55.33844 35759 ft 445 kts 67°
2026-05-07 12:28 53.25844 55.38588 35509 ft 447 kts 67°
2026-05-07 12:28 53.27088 55.43341 35264 ft 447 kts 67°
2026-05-07 12:28 53.28335 55.48101 35019 ft 447 kts 67°
2026-05-07 12:28 53.29160 55.51253 34850 ft 447 kts 67°
2026-05-07 12:29 53.30821 55.57618 34392 ft 447 kts 67°
2026-05-07 12:29 53.32049 55.62348 33539 ft 453 kts 68°
2026-05-07 12:29 53.33298 55.67177 32979 ft 450 kts 67°
2026-05-07 12:29 53.34532 55.71966 32422 ft 448 kts 67°
2026-05-07 12:30 53.35762 55.76742 31858 ft 445 kts 67°
2026-05-07 12:30 53.36985 55.81493 31291 ft 443 kts 67°
2026-05-07 12:30 53.38200 55.86206 30744 ft 440 kts 67°
2026-05-07 12:30 53.39425 55.90885 30176 ft 437 kts 66°
2026-05-07 12:31 53.40658 55.95515 29623 ft 434 kts 66°
2026-05-07 12:31 53.41875 56.00047 29078 ft 431 kts 66°
2026-05-07 12:31 53.43096 56.04607 28524 ft 428 kts 66°
2026-05-07 12:31 53.44306 56.09148 27985 ft 424 kts 66°
2026-05-07 12:32 53.45502 56.13655 27461 ft 422 kts 66°
2026-05-07 12:32 53.46683 56.18130 26937 ft 418 kts 66°
2026-05-07 12:32 53.47852 56.22576 26412 ft 415 kts 66°
2026-05-07 12:32 53.49006 56.26984 25929 ft 410 kts 67°
2026-05-07 12:33 53.51277 56.35663 24969 ft 401 kts 67°
2026-05-07 12:33 53.52015 56.38495 24661 ft 399 kts 67°
2026-05-07 12:33 53.53473 56.44115 24043 ft 393 kts 67°
2026-05-07 12:34 53.54558 56.48310 23577 ft 389 kts 67°
2026-05-07 12:34 53.55632 56.52456 23117 ft 385 kts 67°
2026-05-07 12:34 53.56694 56.56565 22652 ft 381 kts 67°
2026-05-07 12:34 53.57746 56.60633 22184 ft 378 kts 67°
2026-05-07 12:35 53.58438 56.63312 21879 ft 375 kts 67°
2026-05-07 12:35 53.59473 56.67325 21407 ft 372 kts 67°
2026-05-07 12:35 53.60499 56.71305 20951 ft 369 kts 67°
2026-05-07 12:35 53.61515 56.75257 20483 ft 366 kts 67°
2026-05-07 12:36 53.62520 56.79184 20017 ft 364 kts 68°
2026-05-07 12:36 53.63840 56.84339 19404 ft 361 kts 66°
2026-05-07 12:36 53.65171 56.87892 18939 ft 359 kts 47°
2026-05-07 12:36 53.67169 56.90356 18486 ft 358 kts 25°
2026-05-07 12:37 53.68733 56.91196 18171 ft 357 kts
2026-05-07 12:37 53.71198 56.91125 17688 ft 356 kts 347°
2026-05-07 12:37 53.73527 56.89720 17209 ft 355 kts 338°
2026-05-07 12:37 53.75806 56.88132 16739 ft 353 kts 338°
2026-05-07 12:38 53.78072 56.86548 16269 ft 352 kts 338°
2026-05-07 12:38 53.81062 56.84457 15659 ft 350 kts 338°
2026-05-07 12:38 53.83308 56.82885 15205 ft 348 kts 338°
2026-05-07 12:38 53.84818 56.81830 14926 ft 346 kts 338°
2026-05-07 12:39 53.87757 56.79787 14363 ft 344 kts 338°
2026-05-07 12:39 53.89218 56.78770 14078 ft 342 kts 338°
2026-05-07 12:39 53.91408 56.77244 13661 ft 339 kts 338°
2026-05-07 12:39 53.93585 56.75727 13242 ft 337 kts 338°
2026-05-07 12:40 53.95706 56.74072 12823 ft 335 kts 330°
2026-05-07 12:40 53.98104 56.70828 12270 ft 333 kts 314°
2026-05-07 12:40 53.99186 56.68919 11977 ft 331 kts 314°
2026-05-07 12:40 54.01301 56.65212 11425 ft 329 kts 314°
2026-05-07 12:41 54.02356 56.63370 11145 ft 327 kts 315°
2026-05-07 12:41 54.03937 56.60607 10720 ft 325 kts 315°
2026-05-07 12:41 54.05511 56.57856 10289 ft 323 kts 315°
2026-05-07 12:41 54.07065 56.55132 10037 ft 316 kts 315°
2026-05-07 12:42 54.08566 56.52499 9905 ft 304 kts 315°
2026-05-07 12:42 54.10020 56.49943 9645 ft 298 kts 315°
2026-05-07 12:42 54.11466 56.47401 9228 ft 298 kts 315°
2026-05-07 12:42 54.12902 56.44873 8770 ft 299 kts 315°
2026-05-07 12:43 54.14340 56.42336 8454 ft 295 kts 314°
2026-05-07 12:43 54.15739 56.39862 8089 ft 293 kts 314°
2026-05-07 12:43 54.17148 56.37370 7717 ft 291 kts 314°
2026-05-07 12:43 54.18524 56.34933 7585 ft 279 kts 315°
2026-05-07 12:44 54.19852 56.32600 7406 ft 270 kts 317°
2026-05-07 12:44 54.21351 56.30739 7099 ft 265 kts 333°
2026-05-07 12:44 54.23035 56.29509 6733 ft 263 kts 339°
2026-05-07 12:44 54.24731 56.28355 6395 ft 261 kts 339°
2026-05-07 12:45 54.26411 56.27204 6066 ft 259 kts 339°
2026-05-07 12:45 54.28049 56.26078 5809 ft 255 kts 339°
2026-05-07 12:45 54.29690 56.24948 5570 ft 254 kts 339°
2026-05-07 12:45 54.31325 56.23820 5330 ft 252 kts 339°
2026-05-07 12:46 54.32956 56.22694 5096 ft 253 kts 338°
2026-05-07 12:46 54.34582 56.21563 4835 ft 250 kts 338°
2026-05-07 12:46 54.36191 56.20439 4713 ft 250 kts 339°
2026-05-07 12:46 54.37802 56.19318 4525 ft 250 kts 337°
2026-05-07 12:47 54.39271 56.17755 4305 ft 250 kts 317°
2026-05-07 12:47 54.40337 56.15467 4078 ft 250 kts 298°
2026-05-07 12:47 54.40912 56.12673 3844 ft 250 kts 282°
2026-05-07 12:47 54.41253 56.09767 3606 ft 246 kts 282°
2026-05-07 12:48 54.41587 56.06930 3402 ft 238 kts 282°
2026-05-07 12:48 54.41909 56.04198 3161 ft 230 kts 282°
2026-05-07 12:48 54.42247 56.01566 2934 ft 222 kts 288°
2026-05-07 12:48 54.42960 55.99290 2736 ft 214 kts 310°
2026-05-07 12:49 54.44062 55.97659 2557 ft 204 kts 330°
2026-05-07 12:49 54.45227 55.96548 2457 ft 188 kts 332°
2026-05-07 12:49 54.46305 55.95514 2276 ft 166 kts 332°
2026-05-07 12:49 54.47314 55.94547 2057 ft 167 kts 331°
2026-05-07 12:50 54.48325 55.93577 1836 ft 166 kts 331°
2026-05-07 12:50 54.49320 55.92624 1617 ft 158 kts 331°
2026-05-07 12:50 54.50253 55.91729 1414 ft 150 kts 332°
2026-05-07 12:50 54.51154 55.90865 1217 ft 147 kts 331°
2026-05-07 12:51 54.52040 55.90013 1024 ft 145 kts 331°
2026-05-07 12:51 54.52921 55.89164 829 ft 145 kts 331°
2026-05-07 12:51 54.53786 55.88333 640 ft 144 kts 331°
2026-05-07 12:51 54.54657 55.87497 473 ft 141 kts 331°
2026-05-07 12:52 54.55396 55.86778 451 ft 94 kts 329°
2026-05-07 12:52 54.55777 55.86426 450 ft 29 kts 348°
2026-05-07 12:52 54.55872 55.86499 451 ft 9 kts 49°
2026-05-07 12:52 54.55893 55.86564 450 ft 12 kts 62°
2026-05-07 12:53 54.55956 55.86753 450 ft 21 kts 59°
2026-05-07 12:53 54.56029 55.86970 450 ft 21 kts 60°
2026-05-07 12:53 54.56099 55.87183 450 ft 21 kts 60°
2026-05-07 12:53 54.56169 55.87395 450 ft 20 kts 60°
2026-05-07 12:54 54.56238 55.87604 450 ft 20 kts 60°
2026-05-07 12:54 54.56304 55.87809 451 ft 19 kts 60°
2026-05-07 12:54 54.56370 55.88007 450 ft 19 kts 60°
2026-05-07 12:54 54.56428 55.88212 450 ft 19 kts 68°
2026-05-07 12:55 54.56463 55.88331 450 ft 0 kts 61°
2026-05-07 12:55 54.56464 55.88334 450 ft 0 kts 61°